Home   Weather   Battambang   Past weeks

Flag for Cambodia Past Weather in Battambang, Cambodia — Yesterday and Last 2 Weeks

Now
91 °F

Passing clouds.


Feels Like: 94 °F
Forecast: 79 / 97 °F
Wind: 5 mph from South

Location: Siemreap

Current Time: Apr 26, 2017 at 6:49:01 pm

Latest Report: Apr 26, 2017 at 6:00 pm


Visibility: N/A

Pressure: 29.68 "Hg

Humidity: 44%

Dew Point: 66 °F

Location of BattambangLocation

Past Weather in Battambang — Graph

°F

Battambang Temperature Yesterday

Maximum temperature yesterday: 97 °F (at 3:00 pm)
Minimum temperature yesterday: 77 °F (at 2:00 am)
Average temperature yesterday: 85 °F

High & Low Weather Summary for the Past Weeks

 TemperatureHumidityPressure
High100 °F (Apr 22, 3:30 pm)100% (Apr 12, 7:00 am)29.92 "Hg (Apr 12, 7:00 am)
Low77 °F (Apr 13, 12:30 pm)27% (Apr 22, 3:30 pm)29.62 "Hg (Apr 11, 5:00 pm)
Average87 °F68%29.76 "Hg
* Reported Apr 11 5:00 pm — Apr 26 5:30 pm, Battambang, Weather by CustomWeather, © 2017

Note: Actual official high and low records may vary slightly from our data, if they occured in-between our weather recording intervals... More about our weather records

Advertising

Battambang Weather History for the Previous 24 Hours

Scroll right to see more
 ConditionsComfort  
Time TempWeatherWind HumidityBarometerVisibility
5:30 pm
Wed, Apr 26
93 °FPassing clouds.6 mph41%29.68 "HgN/A
5:00 pm93 °FPassing clouds.6 mph44%29.68 "HgN/A
4:30 pm95 °FPassing clouds.6 mph41%29.68 "HgN/A
4:00 pm95 °FPassing clouds.5 mph44%29.68 "HgN/A
3:30 pm95 °FPassing clouds.2 mph44%29.68 "HgN/A
3:00 pm95 °FPassing clouds.2 mph47%29.68 "HgN/A
2:30 pm95 °FScattered clouds.3 mph47%29.71 "HgN/A
2:00 pm93 °FPassing clouds.3 mph49%29.71 "HgN/A
1:30 pm91 °FScattered clouds.6 mph56%29.74 "HgN/A
1:00 pm93 °FScattered clouds.3 mph53%29.77 "HgN/A
12:30 pm91 °FPassing clouds.5 mph59%29.77 "HgN/A
12:00 pm91 °FPassing clouds.6 mph59%29.80 "HgN/A
11:30 am90 °FPassing clouds.6 mph63%29.80 "HgN/A
11:00 am88 °FPassing clouds.5 mph66%29.80 "HgN/A
10:30 am91 °FPassing clouds.3 mph52%29.83 "HgN/A
10:00 am86 °FPassing clouds.5 mph70%29.83 "HgN/A
9:30 am86 °FPassing clouds.7 mph70%29.83 "HgN/A
9:00 am84 °FPassing clouds.7 mph74%29.83 "HgN/A
8:00 am82 °FPassing clouds.6 mph70%29.83 "HgN/A
7:30 am81 °FPassing clouds.5 mph74%29.83 "HgN/A
2:30 am79 °FPassing clouds.5 mph94%29.74 "Hg6 mi
2:00 am79 °FPassing clouds.No wind100%29.74 "Hg6 mi
1:00 am79 °FPassing clouds.No wind100%29.77 "Hg6 mi
12:30 am81 °FPassing clouds.No wind89%29.77 "Hg6 mi
12:00 am81 °FPassing clouds.2 mph94%29.77 "Hg6 mi
11:30 pm
Tue, Apr 25
81 °FPassing clouds.3 mph94%29.80 "Hg6 mi
11:00 pm79 °FPassing clouds.3 mph100%29.80 "Hg6 mi
10:00 pm79 °FPassing clouds.2 mph100%29.80 "Hg6 mi
9:30 pm81 °FPassing clouds.5 mph100%29.77 "Hg6 mi
9:00 pm81 °FPassing clouds.5 mph94%29.77 "Hg6 mi
8:30 pm81 °FPassing clouds.2 mph94%29.77 "Hg6 mi
8:00 pm81 °FPassing clouds.1 mph89%29.74 "Hg6 mi
7:30 pm81 °FPassing clouds.3 mph89%29.74 "Hg6 mi
7:00 pm81 °FPassing clouds.5 mph89%29.71 "Hg6 mi
6:00 pm79 °FBroken clouds.5 mph89%29.71 "Hg6 mi
Weather by CustomWeather, © 2017

See weather overviewHow to use our weather pages